Language: 


Des rapports , des résumés tant et plus, au choix de chacun....


Données Historiques de Météogheer
Journalier Rapport pour Janvier 16, 2018 Unitée:  Métrique    Impériale   Les deux
Suivant Jour »
Journalier Hebdomadaire Mensuel Annuel Sur mesure
  Max: Min: Moyenne:
Température: 8.8 °C 3.9 °C 6.7 °C
Point de rosée: 7.0 °C 0.0 °C 3.6 °C
Humidité: 96% 58% 80%
Vent: 44.6km/h 0.0km/h 16.8km/h
Rafales: 45.7km/h - -
Vent- - WSW
Pression: 996.8 hPa 992.1 hPa -
Pluie: 0.5 mm    
Historical Graphs
 
 
Données tabulaires pour Janvier 16, 2018
Heure Température Point de rosée Pression Vent Vent Rafales Humidité Pluie Taux (Horaire) Conditions
00:01 7.2 °C 6.0 °C 995.1 hPa West 13.7 km/h 25.9 km/h 90% 0.0 mm
00:07 7.1 °C 6.0 °C 995.1 hPa WSW 16.6 km/h 23.0 km/h 90% 0.0 mm
00:17 7.0 °C 6.0 °C 996.2 hPa West 12.6 km/h 20.6 km/h 90% 0.0 mm
00:25 6.9 °C 6.0 °C 995.1 hPa WSW 16.9 km/h 20.9 km/h 91% 0.0 mm
00:32 6.9 °C 6.0 °C 995.1 hPa WSW 9.7 km/h 20.6 km/h 91% 0.0 mm
00:42 6.9 °C 6.0 °C 994.1 hPa WSW 12.6 km/h 19.5 km/h 92% 0.0 mm
00:50 7.0 °C 6.0 °C 994.1 hPa West 20.9 km/h 25.3 km/h 91% 0.0 mm
01:03 7.3 °C 5.0 °C 995.1 hPa WSW 15.4 km/h 28.5 km/h 85% 0.0 mm
01:10 7.1 °C 4.0 °C 995.1 hPa WSW 16.3 km/h 25.3 km/h 82% 0.0 mm
01:22 7.0 °C 4.0 °C 995.1 hPa West 19.5 km/h 24.5 km/h 82% 0.0 mm
01:27 7.1 °C 4.0 °C 995.1 hPa WSW 12.2 km/h 24.5 km/h 83% 0.0 mm
01:34 7.3 °C 5.0 °C 995.1 hPa West 31.4 km/h 32.0 km/h 84% 0.0 mm
01:46 7.3 °C 5.0 °C 994.1 hPa WSW 17.2 km/h 37.0 km/h 86% 0.0 mm
02:03 7.1 °C 6.0 °C 995.1 hPa WSW 20.1 km/h 26.2 km/h 89% 0.0 mm
02:17 7.1 °C 6.0 °C 995.1 hPa WSW 20.1 km/h 26.7 km/h 91% 0.0 mm
02:34 6.8 °C 5.0 °C 994.1 hPa WSW 16.9 km/h 24.8 km/h 90% 0.0 mm
02:41 6.8 °C 5.0 °C 994.1 hPa WSW 19.8 km/h 27.4 km/h 90% 0.0 mm
02:49 6.7 °C 6.0 °C 994.1 hPa WSW 20.1 km/h 27.4 km/h 91% 0.0 mm
02:59 6.8 °C 6.0 °C 994.1 hPa WSW 17.2 km/h 23.8 km/h 92% 0.0 mm
03:06 6.8 °C 6.0 °C 994.1 hPa SW 16.6 km/h 24.8 km/h 92% 0.0 mm
03:14 6.6 °C 6.0 °C 994.1 hPa WSW 11.9 km/h 23.3 km/h 92% 0.0 mm
03:28 6.4 °C 6.0 °C 994.1 hPa WSW 20.1 km/h 20.6 km/h 93% 0.0 mm
03:39 6.4 °C 6.0 °C 994.1 hPa WSW 19.8 km/h 20.6 km/h 94% 0.0 mm
03:50 6.4 °C 6.0 °C 994.1 hPa WSW 19.1 km/h 22.4 km/h 95% 0.0 mm
03:58 6.5 °C 6.0 °C 993.1 hPa WSW 16.6 km/h 20.9 km/h 95% 0.0 mm
04:04 6.7 °C 6.0 °C 993.1 hPa West 12.6 km/h 23.3 km/h 96% 0.0 mm
04:11 6.8 °C 6.0 °C 994.1 hPa WSW 12.6 km/h 20.9 km/h 96% 0.0 mm
04:16 6.8 °C 6.0 °C 994.1 hPa WSW 14.0 km/h 20.9 km/h 96% 0.0 mm
04:22 6.8 °C 6.0 °C 994.1 hPa WSW 15.1 km/h 21.2 km/h 96% 0.0 mm
04:31 6.9 °C 7.0 °C 993.1 hPa WSW 11.9 km/h 20.9 km/h 96% 0.0 mm
04:48 6.9 °C 7.0 °C 993.1 hPa WSW 14.0 km/h 17.7 km/h 96% 0.0 mm
05:09 6.9 °C 7.0 °C 992.1 hPa WSW 12.2 km/h 14.0 km/h 96% 0.3 mm
05:22 6.9 °C 7.0 °C 992.1 hPa WSW 16.9 km/h 28.5 km/h 96% 0.3 mm
05:28 6.9 °C 7.0 °C 993.1 hPa West 24.5 km/h 28.5 km/h 96% 0.3 mm
05:36 6.9 °C 7.0 °C 993.1 hPa West 17.7 km/h 28.0 km/h 96% 0.3 mm
05:50 6.9 °C 7.0 °C 993.1 hPa WSW 17.2 km/h 24.8 km/h 96% 0.3 mm
06:08 6.9 °C 7.0 °C 993.1 hPa West 17.2 km/h 21.6 km/h 96% 0.0 mm
06:36 6.9 °C 7.0 °C 993.1 hPa WSW 16.9 km/h 27.0 km/h 96% 0.0 mm
06:42 6.9 °C 7.0 °C 993.1 hPa West 28.0 km/h 28.0 km/h 96% 0.0 mm
06:49 6.9 °C 7.0 °C 993.1 hPa West 13.0 km/h 28.0 km/h 96% 0.0 mm
07:10 6.9 °C 7.0 °C 993.1 hPa WSW 21.6 km/h 28.5 km/h 96% 0.0 mm
07:19 7.7 °C 6.0 °C 993.1 hPa WSW 19.8 km/h 28.0 km/h 86% 0.0 mm
07:30 7.6 °C 6.0 °C 993.1 hPa WSW 16.9 km/h 27.4 km/h 85% 0.0 mm
07:44 7.4 °C 5.0 °C 993.1 hPa West 17.7 km/h 30.9 km/h 84% 0.0 mm
08:01 7.4 °C 5.0 °C 993.1 hPa West 15.4 km/h 25.6 km/h 83% 0.0 mm
08:08 7.2 °C 5.0 °C 993.1 hPa WSW 10.5 km/h 22.7 km/h 83% 0.0 mm
08:13 7.1 °C 4.0 °C 993.1 hPa West 23.3 km/h 23.8 km/h 83% 0.0 mm
08:20 7.1 °C 5.0 °C 993.1 hPa West 17.7 km/h 26.2 km/h 84% 0.0 mm
08:29 7.2 °C 5.0 °C 994.1 hPa West 21.2 km/h 27.4 km/h 83% 0.0 mm
08:35 7.1 °C 4.0 °C 994.1 hPa WSW 13.7 km/h 24.8 km/h 83% 0.0 mm
08:45 7.0 °C 4.0 °C 995.1 hPa West 17.7 km/h 25.3 km/h 83% 0.0 mm
08:59 6.7 °C 4.0 °C 994.1 hPa WSW 16.6 km/h 20.9 km/h 84% 0.0 mm
09:08 6.7 °C 4.0 °C 994.1 hPa West 9.0 km/h 20.6 km/h 84% 0.0 mm
09:13 6.6 °C 4.0 °C 995.1 hPa West 14.0 km/h 24.8 km/h 84% 0.0 mm
09:22 6.8 °C 5.0 °C 995.1 hPa WSW 17.2 km/h 24.8 km/h 85% 0.0 mm
09:28 6.8 °C 5.0 °C 995.1 hPa West 13.0 km/h 24.8 km/h 85% 0.0 mm
09:34 6.7 °C 5.0 °C 995.1 hPa WSW 19.5 km/h 23.0 km/h 85% 0.0 mm
09:48 7.0 °C 5.0 °C 995.1 hPa West 20.9 km/h 27.7 km/h 84% 0.0 mm
09:57 7.2 °C 4.0 °C 995.1 hPa WSW 20.9 km/h 23.8 km/h 80% 0.0 mm
10:09 7.1 °C 3.0 °C 995.1 hPa WSW 27.7 km/h 28.5 km/h 78% 0.0 mm
10:14 7.1 °C 3.0 °C 995.1 hPa West 22.7 km/h 41.4 km/h 76% 0.0 mm
10:26 7.1 °C 3.0 °C 996.2 hPa WSW 17.2 km/h 32.0 km/h 76% 0.0 mm
10:31 7.0 °C 3.0 °C 996.2 hPa West 16.3 km/h 28.0 km/h 76% 0.0 mm
10:36 7.0 °C 3.0 °C 996.2 hPa WNW 20.9 km/h 25.6 km/h 76% 0.0 mm
10:43 7.1 °C 3.0 °C 995.1 hPa West 19.1 km/h 28.5 km/h 75% 0.0 mm
10:51 7.2 °C 3.0 °C 995.1 hPa WSW 10.1 km/h 29.1 km/h 75% 0.0 mm
10:59 7.3 °C 3.0 °C 996.2 hPa West 15.8 km/h 29.9 km/h 75% 0.0 mm
11:12 7.4 °C 3.0 °C 996.2 hPa SSW 16.3 km/h 27.4 km/h 73% 0.0 mm
11:20 7.4 °C 3.0 °C 996.2 hPa WSW 16.6 km/h 32.0 km/h 72% 0.0 mm
11:29 7.4 °C 3.0 °C 996.8 hPa West 17.2 km/h 30.2 km/h 72% 0.0 mm
11:39 7.4 °C 3.0 °C 996.8 hPa West 12.2 km/h 26.7 km/h 72% 0.0 mm
11:52 7.4 °C 3.0 °C 996.8 hPa West 6.1 km/h 17.2 km/h 72% 0.0 mm
11:57 7.4 °C 3.0 °C 996.8 hPa West 11.9 km/h 20.1 km/h 72% 0.0 mm
12:07 8.8 °C 4.0 °C 996.8 hPa WSW 11.6 km/h 17.2 km/h 69% 0.0 mm
12:14 8.8 °C 4.0 °C 996.8 hPa WSW 11.6 km/h 17.2 km/h 69% 0.0 mm
12:31 8.5 °C 1.0 °C 996.8 hPa WSW 6.9 km/h 28.5 km/h 58% 0.0 mm
12:40 8.5 °C 1.0 °C 996.8 hPa West 27.7 km/h 27.7 km/h 58% 0.0 mm
12:47 8.5 °C 1.0 °C 996.8 hPa West 44.6 km/h 44.6 km/h 58% 0.0 mm
13:04 8.5 °C 1.0 °C 996.8 hPa WSW 9.7 km/h 43.1 km/h 58% 0.0 mm
13:15 8.5 °C 1.0 °C 996.2 hPa West 18.0 km/h 36.0 km/h 58% 0.0 mm
13:21 8.5 °C 1.0 °C 996.2 hPa WNW 21.6 km/h 30.6 km/h 58% 0.0 mm
13:31 7.9 °C 2.0 °C 996.8 hPa West 27.7 km/h 27.7 km/h 66% 0.0 mm
13:47 7.9 °C 2.0 °C 996.2 hPa West 20.6 km/h 33.8 km/h 66% 0.0 mm
13:54 7.9 °C 2.0 °C 996.2 hPa WSW 25.3 km/h 39.3 km/h 66% 0.0 mm
14:02 8.3 °C 3.0 °C 996.2 hPa West 19.8 km/h 40.4 km/h 65% 0.0 mm
14:10 8.1 °C 3.0 °C 996.2 hPa WSW 12.6 km/h 36.0 km/h 67% 0.0 mm
14:22 8.4 °C 3.0 °C 996.2 hPa WSW 20.9 km/h 42.8 km/h 65% 0.0 mm
14:32 8.5 °C 3.0 °C 995.1 hPa West 17.7 km/h 38.5 km/h 67% 0.0 mm
14:39 8.5 °C 3.0 °C 995.1 hPa West 25.3 km/h 33.5 km/h 65% 0.0 mm
14:49 8.5 °C 3.0 °C 995.1 hPa West 32.0 km/h 40.4 km/h 67% 0.0 mm
15:09 8.5 °C 2.0 °C 995.1 hPa West 21.6 km/h 41.4 km/h 63% 0.0 mm
15:21 8.5 °C 3.0 °C 995.1 hPa West 13.0 km/h 28.5 km/h 65% 0.0 mm
15:27 8.5 °C 3.0 °C 995.1 hPa West 33.1 km/h 33.1 km/h 64% 0.0 mm
15:35 8.4 °C 2.0 °C 995.1 hPa West 22.7 km/h 36.7 km/h 63% 0.0 mm
15:43 8.1 °C 2.0 °C 995.1 hPa West 21.2 km/h 36.7 km/h 64% 0.0 mm
16:09 7.5 °C 0.0 °C 996.2 hPa West 20.9 km/h 45.7 km/h 59% 0.0 mm
16:14 7.4 °C 0.0 °C 996.2 hPa West 11.6 km/h 28.0 km/h 61% 0.0 mm
16:27 7.1 °C 1.0 °C 996.2 hPa WSW 17.7 km/h 24.8 km/h 64% 0.0 mm
16:36 6.7 °C 1.0 °C 996.2 hPa WSW 14.0 km/h 25.9 km/h 67% 0.0 mm
16:56 6.3 °C 2.0 °C 995.1 hPa West 16.9 km/h 23.0 km/h 72% 0.0 mm
17:12 6.3 °C 2.0 °C 996.2 hPa West 20.1 km/h 23.8 km/h 73% 0.0 mm
17:19 6.3 °C 2.0 °C 996.2 hPa WNW 9.3 km/h 27.7 km/h 72% 0.0 mm
17:33 6.3 °C 1.0 °C 996.2 hPa WSW 20.6 km/h 23.8 km/h 70% 0.0 mm
17:47 6.1 °C 1.0 °C 995.1 hPa West 17.2 km/h 25.3 km/h 70% 0.0 mm
17:54 6.1 °C 1.0 °C 995.1 hPa West 15.4 km/h 25.3 km/h 70% 0.0 mm
18:10 6.0 °C 1.0 °C 995.1 hPa WSW 20.1 km/h 24.8 km/h 71% 0.0 mm
18:16 6.0 °C 1.0 °C 995.1 hPa WSW 16.3 km/h 28.0 km/h 71% 0.0 mm
18:23 5.9 °C 1.0 °C 995.1 hPa West 16.6 km/h 31.7 km/h 71% 0.0 mm
18:38 5.9 °C 1.0 °C 994.1 hPa WSW 16.6 km/h 28.0 km/h 70% 0.0 mm
18:45 5.9 °C 1.0 °C 994.1 hPa West 16.3 km/h 27.4 km/h 70% 0.0 mm
18:51 5.9 °C 1.0 °C 994.1 hPa WSW 17.7 km/h 21.2 km/h 70% 0.0 mm
18:58 5.8 °C 1.0 °C 995.1 hPa West 12.6 km/h 21.2 km/h 71% 0.0 mm
19:03 5.8 °C 1.0 °C 995.1 hPa West 13.7 km/h 19.5 km/h 71% 0.0 mm
19:09 5.9 °C 1.0 °C 995.1 hPa WSW 16.6 km/h 21.6 km/h 71% 0.0 mm
19:22 5.8 °C 2.0 °C 995.1 hPa WSW 15.4 km/h 17.7 km/h 72% 0.0 mm
19:28 5.8 °C 2.0 °C 995.1 hPa West 14.0 km/h 20.9 km/h 73% 0.0 mm
19:34 5.8 °C 2.0 °C 995.1 hPa WSW 15.8 km/h 20.9 km/h 73% 0.0 mm
19:40 5.8 °C 2.0 °C 995.1 hPa West 13.0 km/h 20.6 km/h 73% 0.0 mm
19:45 5.7 °C 2.0 °C 995.1 hPa WSW 9.7 km/h 18.0 km/h 74% 0.0 mm
19:50 5.6 °C 2.0 °C 995.1 hPa WSW 9.0 km/h 14.0 km/h 74% 0.0 mm
19:57 5.5 °C 2.0 °C 995.1 hPa WSW 9.7 km/h 12.6 km/h 75% 0.0 mm
20:16 5.7 °C 2.0 °C 995.1 hPa WSW 19.8 km/h 26.2 km/h 77% 0.0 mm
20:28 5.6 °C 2.0 °C 995.1 hPa WSW 11.6 km/h 18.0 km/h 78% 0.0 mm
20:34 5.5 °C 2.0 °C 995.1 hPa WSW 21.9 km/h 21.9 km/h 78% 0.0 mm
20:41 5.4 °C 2.0 °C 994.1 hPa WSW 16.9 km/h 21.9 km/h 78% 0.0 mm
20:47 5.4 °C 2.0 °C 994.1 hPa WSW 16.9 km/h 20.9 km/h 78% 0.0 mm
20:52 5.4 °C 2.0 °C 994.1 hPa WSW 17.2 km/h 24.5 km/h 78% 0.0 mm
21:04 5.5 °C 3.0 °C 995.1 hPa WSW 13.7 km/h 25.9 km/h 79% 0.0 mm
21:12 5.5 °C 3.0 °C 995.1 hPa WSW 12.6 km/h 20.9 km/h 80% 0.0 mm
21:24 5.5 °C 3.0 °C 995.1 hPa West 27.0 km/h 34.3 km/h 84% 0.0 mm
21:37 5.5 °C 3.0 °C 994.1 hPa WSW 12.2 km/h 38.1 km/h 84% 0.0 mm
21:45 5.5 °C 3.0 °C 995.1 hPa WSW 14.0 km/h 24.5 km/h 84% 0.0 mm
21:56 5.5 °C 3.0 °C 995.1 hPa WSW 14.0 km/h 21.2 km/h 84% 0.3 mm
22:01 5.5 °C 3.0 °C 995.1 hPa West 9.7 km/h 20.9 km/h 84% 0.3 mm
22:07 5.5 °C 3.0 °C 995.1 hPa Calm   12.6 km/h 84% 0.3 mm
22:21 5.5 °C 3.0 °C 994.1 hPa SW 9.0 km/h 12.2 km/h 84% 0.3 mm
22:35 3.9 °C 3.0 °C 994.1 hPa SSW 10.5 km/h 12.6 km/h 90% 0.3 mm
22:48 3.9 °C 3.0 °C 994.1 hPa SW 13.7 km/h 16.9 km/h 90% 0.3 mm
23:03 3.9 °C 3.0 °C 994.1 hPa SW 8.7 km/h 14.0 km/h 90% 0.0 mm
23:10 3.9 °C 3.0 °C 994.1 hPa WSW 9.7 km/h 16.6 km/h 90% 0.0 mm
23:15 3.9 °C 3.0 °C 994.1 hPa WSW 11.1 km/h 19.5 km/h 90% 0.0 mm
23:27 3.9 °C 3.0 °C 994.1 hPa West 16.9 km/h 25.6 km/h 90% 0.0 mm
23:32 4.2 °C 4.0 °C 994.1 hPa West 18.0 km/h 25.6 km/h 96% 0.0 mm
23:41 4.2 °C 3.0 °C 994.1 hPa West 14.3 km/h 21.9 km/h 94% 0.0 mm
23:55 4.2 °C 3.0 °C 994.1 hPa West 20.6 km/h 24.8 km/h 94% 0.0 mm
Données Historique de Météo Turbie

Mise a jour : 22/05/2018 21:44:16
Généré par Cumulus 1.9.4 (1099)